COSMOS 2485 (747) (39155 NORAD) Tracking and Keplerian Element Data

This shows tracking and keplerian element data for the satellite.

Feedback or suggestion? Click here.




ElementValue
Catalog39155
NameCOSMOS 2485 (747)
Epoch Orbit4331
Epoch Day323.09389887
Epoch Year2018
RAAN166.7925
Inclination64.6604
Eccentricity0.0017416
Argument of Perigee231.5772
Mean Anonmoly80.3141
Mean Motion2.13101979
Decay Rate1.14E-06
L11 39155U 13019A 18323.09389887 .00000114 00000-0 00000+0 0 9991
L22 39155 64.6604 166.7925 0017416 231.5772 80.3141 2.13101979 43314

Live tracking and technical data element details for COSMOS 2485 (747) (NORAD 39155). COSMOS 2485 (747) can be tracked NOW for your location showing map with azimuth and elevation plus other details from your city location.

Track the satellite on the map from your city or location and see movement details for azimuth, elevation, latitude, longitude, range, height, and movement on the map or in text.







IsCatalogInMostPopularTable: catalog: 39155, numindb: 81
Update: records affected: 1



GetName: 39155 COSMOS 2485 (747)

Hit Count: updated at: Wed, 21 Nov 2018 05:32:28 GMT